Aérodrome :
LOGIN :

S'inscrire | Disclaimer

   EN    FR    IT 

 










Légende :    VFR   VFR Marginal   IFR   IFR Intensif   IFR Très Intensif
Visi : 
Plafond : 
>= 8 km
>= 3000ft
5 à 8 km
1000 à 3000 ft
1500m à 5 km
500 à 1000 ft
800 à 1500m
200 à 500 ft
< 800m
< 200 ft
Symboles :   Orages  Brouillard  Fortes neiges  Fortes précipitations  Vent > 20 kt
SIGMETs :   Divers  Orages  Givrage  Turbulence  Onde Orograph.  Cendres Volcan.







- Altitude de l'aérodrome : 7 ft
- Code IATA : POW


LJPZ - Portoroz

DERNIER METAR :
  • 172100Z 06007KT 010V110 CAVOK 12/03 Q1018

METARs EXPIRÉS :
  • 172030Z 06009KT 030V100 CAVOK 12/03 Q1018
  • 172000Z 07010KT 030V100 CAVOK 11/03 Q1018
  • 171930Z 10006KT 050V140 CAVOK 11/03 Q1018
  • 171900Z 08008KT 020V130 CAVOK 11/03 Q1018
  • 171830Z VRB02KT CAVOK 10/03 Q1018

TAF TAF LJPZ
Valide du 17 à 21h jusqu'au 18 à 06h UTC


172000Z 1721/1806 08005KT CAVOK
Pas de NOTAMs connus pour ce terrain.



MET'MAP, la Météo Aéronautique d'un coup d'oeil ! - Copyright ORBIFLY Décembre 2007 - Disclaimer

ORBIFLY MET'MAP TEAM :

Programmation & Développement : Alexandra Zaïnal
Conception & Développement : Baudouin d'Aumeries
Co-Programmation & Développement : Marc-Olivier Méhu
Soutien technique & logistique : Manuel Goepfert

Contact : metmap@orbifly.com




SOURCES & CREDITS :

   NOAA